Platform_ID, WMO, Timestamp (yyyy-mm-dd hh:mm:ss), GPS Lat(deg), GPS Lon(deg), GPS TTFF(s), GPS Num Sat, GPS HDOP, SST(degC), AirPressur
e(mBar), Battery(VDC), Drogue(counts), SBD Xmit Time(s),SBD Retries(count), Salinity (PSU)
61399920, 4400899, 2018-04-09 00:00:00, 64.21160, -13.77760,   5,   7,   0, 6.33, 9999.99, 10.00, 7,   3, 5, 0.000
61399920, 4400899, 2018-04-09 01:00:00, 64.21600, -13.79080,   5,   6,   0, 6.37, 9999.99, 10.00, 7,   3, 5, 0.000
61399920, 4400899, 2018-04-09 02:00:00, 64.22460, -13.80040,   4,   7,   2, 6.16, 9999.99, 10.00, 7,   3, 5, 0.000
61399920, 4400899, 2018-04-09 03:00:00, 64.23460, -13.80580,   5,   5,   0, 6.06, 9999.99, 10.00, 7,   3, 5, 0.000
61399920, 4400899, 2018-04-09 04:00:00, 64.24420, -13.80820,   4,   6,   2, 5.82, 9999.99, 10.00, 7,   3, 5, 0.000
61399920, 4400899, 2018-04-09 05:00:00, 64.25180, -13.80400,   5,   6,   0, 5.27, 9999.99, 10.00, 9,  18, 5, 0.000
61399920, 4400899, 2018-04-09 06:00:00, 64.25580, -13.79740,   5,   6,   1, 5.27, 9999.99, 10.00, 9,   3, 5, 0.000
61399920, 4400899, 2018-04-09 07:00:00, 64.25480, -13.79020,   4,  10,   2, 5.27, 9999.99, 10.00, 9,   3, 5, 0.000
61399920, 4400899, 2018-04-09 08:00:00, 64.25020, -13.79080,   5,   8,   0, 5.31, 9999.99, 10.00, 9,  20, 5, 0.000
61399920, 4400899, 2018-04-09 09:00:00, 64.24140, -13.79300,   5,   6,   0, 6.09, 9999.99, 10.00, 13,   3, 5, 0.000
61399920, 4400899, 2018-04-09 10:00:00, 64.22960, -13.80000,   4,   5,   3, 6.78, 9999.99, 10.00, 13,   3, 5, 0.000
61399920, 4400899, 2018-04-09 11:00:00, 64.21880, -13.81300,   5,   5,   0, 6.88, 9999.99, 10.00, 13,   3, 5, 0.000
61399920, 4400899, 2018-04-09 12:00:00, 64.20960, -13.82840,   5,   4,   0, 6.98, 9999.99, 10.00, 13,   3, 5, 0.000
61399920, 4400899, 2018-04-09 13:00:00, 64.20260, -13.84580,   4,   4,   3, 7.02, 9999.99, 10.00, 10,   3, 5, 0.000
61399920, 4400899, 2018-04-09 14:00:00, 64.19940, -13.85880,   4,   6,   2, 7.05, 9999.99, 10.00, 10,   3, 4, 0.000
61399920, 4400899, 2018-04-09 15:00:00, 64.19940, -13.86840,   5,   5,   1, 7.08, 9999.99, 10.00, 10,   3, 5, 0.000
61399920, 4400899, 2018-04-09 16:00:00, 64.20140, -13.87220,   4,   8,   2, 7.08, 9999.99, 10.00, 10,   3, 5, 0.000
61399920, 4400899, 2018-04-09 17:00:00, 64.20440, -13.87540,   4,   5,   2, 7.08, 9999.99, 10.00, 7,   3, 4, 0.000
61399920, 4400899, 2018-04-09 18:00:00, 64.20640, -13.87600,   5,   4,   0, 7.08, 9999.99, 10.00, 7,  19, 5, 0.000
61399920, 4400899, 2018-04-09 19:00:00, 64.20760, -13.87560,   5,   4,   1, 7.08, 9999.99, 10.00, 7,  24, 5, 0.000
61399920, 4400899, 2018-04-09 20:00:00, 64.20660, -13.87680,   4,   5,   2, 6.98, 9999.99, 10.00, 7,   3, 5, 0.000
61399920, 4400899, 2018-04-09 21:00:00, 64.20400, -13.88540,   4,  10,   2, 6.98, 9999.99, 10.00, 8,   3, 5, 0.000
61399920, 4400899, 2018-04-09 22:00:00, 64.19900, -13.89720,   5,   6,   0, 6.98, 9999.99, 10.00, 8,  32, 5, 0.000
61399920, 4400899, 2018-04-09 23:00:00, 64.19220, -13.90520,   4,   8,   2, 6.95, 9999.99, 10.00, 8,   3, 5, 0.000
61399920, 4400899, 2018-04-10 00:00:00, 64.18560, -13.91440,   5,   7,   0, 6.98, 9999.99, 10.00, 8,   3, 3, 0.000
61399920, 4400899, 2018-04-10 01:00:00, 64.18180, -13.92540,   5,   8,   0, 7.02, 9999.99, 10.00, 8,   3, 5, 0.000
61399920, 4400899, 2018-04-10 02:00:00, 64.18320, -13.93140,   4,   8,   2, 7.02, 9999.99, 10.00, 8,   3, 5, 0.000
61399920, 4400899, 2018-04-10 03:00:00, 64.18680, -13.93680,   5,   7,   0, 6.95, 9999.99, 10.00, 8,   3, 5, 0.000
61399920, 4400899, 2018-04-10 04:00:00, 64.19200, -13.93960,   5,   6,   0, 6.91, 9999.99, 10.00, 8,   3, 5, 0.000
61399920, 4400899, 2018-04-10 05:00:00, 64.20300, -13.93320,   4,   7,   2, 6.91, 9999.99, 10.00, 7,   3, 5, 0.000
61399920, 4400899, 2018-04-10 06:00:00, 64.21460, -13.91980,   5,   5,   0, 6.84, 9999.99, 10.00, 7,   3, 5, 0.000
61399920, 4400899, 2018-04-10 07:00:00, 64.22620, -13.90400,   4,   7,   3, 6.74, 9999.99, 10.00, 7,   3, 5, 0.000
61399920, 4400899, 2018-04-10 08:00:00, 64.23480, -13.88760,   5,   6,   0, 6.43, 9999.99, 10.00, 7,   3, 5, 0.000
61399920, 4400899, 2018-04-10 09:00:00, 64.24000, -13.87720,   5,   6,   0, 6.64, 9999.99, 10.00, 9,   3, 5, 0.000
61399920, 4400899, 2018-04-10 10:00:00, 64.24360, -13.87440,   5,   4,   0, 6.54, 9999.99, 10.00, 9,   3, 5, 0.000
61399920, 4400899, 2018-04-10 11:00:00, 64.24500, -13.86500,   4,   7,   2, 6.60, 9999.99, 10.00, 9,   3, 5, 0.000
61399920, 4400899, 2018-04-10 12:00:00, 64.24640, -13.86460,   5,   5,   1, 6.64, 9999.99, 10.00, 9,   3, 5, 0.000
61399920, 4400899, 2018-04-10 13:00:00, 64.25040, -13.86700,   4,  10,   3, 6.37, 9999.99, 10.00, 7,   3, 5, 0.000
61399920, 4400899, 2018-04-10 14:00:00, 64.25680, -13.86560,   4,   5,   2, 6.26, 9999.99, 10.00, 7,   3, 5, 0.000
61399920, 4400899, 2018-04-10 15:00:00, 64.26500, -13.86200,   5,   5,   0, 5.85, 9999.99, 10.00, 7,   3, 5, 0.000
61399920, 4400899, 2018-04-10 16:00:00, 64.27560, -13.85400,   4,   6,   2, 4.38, 9999.99, 10.00, 7,   3, 5, 0.000
61399920, 4400899, 2018-04-10 17:00:00, 64.28840, -13.84120,   4,   5,   1, 4.55, 9999.99, 10.00, 9,   3, 5, 0.000
61399920, 4400899, 2018-04-10 18:00:00, 64.29960, -13.82360,   4,   8,   2, 3.73, 9999.99, 10.00, 9,   3, 5, 0.000
61399920, 4400899, 2018-04-10 19:00:00, 64.30720, -13.80000,   4,   5,   1, 3.83, 9999.99, 10.00, 9,   3, 4, 0.000
61399920, 4400899, 2018-04-10 20:00:00, 64.31220, -13.78100,   4,   7,   2, 4.11, 9999.99, 10.00, 9,   3, 5, 0.000
61399920, 4400899, 2018-04-10 21:00:00, 64.31420, -13.76760,   5,   6,   0, 4.55, 9999.99, 10.00, 11,   3, 5, 0.000
61399920, 4400899, 2018-04-10 22:00:00, 64.31500, -13.76260,   4,   6,   3, 4.79, 9999.99, 10.00, 11,   3, 5, 0.000
61399920, 4400899, 2018-04-10 23:00:00, 64.31480, -13.76200,   5,   6,   0, 5.20, 9999.99, 10.00, 11,   3, 4, 0.000
61399920, 4400899, 2018-04-11 00:00:00, 64.31360, -13.76800,   5,   6,   0, 4.07, 9999.99, 10.00, 11,   4, 5, 0.000
61399920, 4400899, 2018-04-11 01:00:00, 64.31260, -13.77660,   4,   9,   2, 3.83, 9999.99, 10.00, 9,   3, 3, 0.000
61399920, 4400899, 2018-04-11 02:00:00, 64.31400, -13.78380,   5,   7,   0, 3.83, 9999.99, 10.00, 9,   3, 5, 0.000
61399920, 4400899, 2018-04-11 03:00:00, 64.31920, -13.78740,   4,   8,   2, 4.04, 9999.99, 10.00, 9,   3, 5, 0.000
61399920, 4400899, 2018-04-11 04:00:00, 64.32780, -13.78760,   5,   6,   0, 5.44, 9999.99, 10.00, 9,   3, 4, 0.000
61399920, 4400899, 2018-04-11 05:00:00, 64.33780, -13.78280,   4,   7,   2, 5.72, 9999.99, 10.00, 12,   3, 5, 0.000
61399920, 4400899, 2018-04-11 06:00:00, 64.34880, -13.77060,   5,   5,   0, 4.07, 9999.99, 10.00, 12,   3, 2, 0.000
61399920, 4400899, 2018-04-11 07:00:00, 64.35860, -13.75080,   4,   6,   1, 4.04, 9999.99, 10.00, 12,   3, 5, 0.000
61399920, 4400899, 2018-04-11 08:00:00, 64.36500, -13.73160,   4,   8,   2, 4.04, 9999.99, 10.00, 12,   3, 5, 0.000
61399920, 4400899, 2018-04-11 09:00:00, 64.36880, -13.72180,   5,   7,   0, 4.21, 9999.99, 10.00, 11,  23, 5, 0.000
61399920, 4400899, 2018-04-11 10:00:00, 64.37060, -13.72080,   4,   6,   2, 4.28, 9999.99, 10.00, 11,   3, 5, 0.000
61399920, 4400899, 2018-04-11 11:00:00, 64.36920, -13.72600,   5,   7,   0, 4.35, 9999.99, 10.00, 11,   3, 5, 0.000
61399920, 4400899, 2018-04-11 12:00:00, 64.36460, -13.73660,   4,   7,   2, 4.38, 9999.99, 10.00, 11,   3, 2, 0.000
61399920, 4400899, 2018-04-11 13:00:00, 64.35940, -13.75240,   4,   7,   2, 4.38, 9999.99, 10.00, 9,   3, 4, 0.000
61399920, 4400899, 2018-04-11 14:00:00, 64.35400, -13.76780,   5,   7,   0, 4.45, 9999.99, 10.00, 9,  27, 4, 0.000
61399920, 4400899, 2018-04-11 15:00:00, 64.35120, -13.78540,   5,   5,   1, 4.45, 9999.99, 10.00, 9,   3, 5, 0.000
61399920, 4400899, 2018-04-11 16:00:00, 64.35440, -13.79860,   4,   5,   2, 4.42, 9999.99, 10.00, 9,   3, 5, 0.000
61399920, 4400899, 2018-04-11 17:00:00, 64.36140, -13.80280,   5,   6,   0, 4.45, 9999.99, 10.00, 10,   3, 5, 0.000
61399920, 4400899, 2018-04-11 18:00:00, 64.37060, -13.80060,   5,   4,   0, 4.45, 9999.99, 10.00, 10,   3, 5, 0.000
61399920, 4400899, 2018-04-11 19:00:00, 64.38080, -13.79020,   4,   6,   1, 4.52, 9999.99, 10.00, 10,   3, 5, 0.000
61399920, 4400899, 2018-04-11 20:00:00, 64.38860, -13.77660,   5,   5,   0, 4.52, 9999.99, 10.00, 10,   3, 5, 0.000
61399920, 4400899, 2018-04-11 21:00:00, 64.39140, -13.76260,   4,   8,   2, 4.38, 9999.99, 10.00, 7,  22, 5, 0.000
61399920, 4400899, 2018-04-11 22:00:00, 64.39000, -13.75240,   5,   5,   1, 4.42, 9999.99, 10.00, 7,   3, 5, 0.000
61399920, 4400899, 2018-04-11 23:00:00, 64.38400, -13.74780,   4,  10,   2, 4.42, 9999.99, 10.00, 7,   3, 5, 0.000
61399920, 4400899, 2018-04-12 00:00:00, 64.37360, -13.74520,   5,   9,   0, 4.42, 9999.99, 10.00, 7,   3, 5, 0.000
61399920, 4400899, 2018-04-12 01:00:00, 64.36120, -13.75300,   5,   7,   0, 4.42, 9999.99, 10.00, 9,   3, 3, 0.000
61399920, 4400899, 2018-04-12 02:00:00, 64.35060, -13.76960,   5,   6,   0, 4.42, 9999.99, 10.00, 9,  18, 4, 0.000
61399920, 4400899, 2018-04-12 03:00:00, 64.34380, -13.78800,   4,  10,   2, 4.42, 9999.99, 10.00, 9,   3, 5, 0.000
61399920, 4400899, 2018-04-12 04:00:00, 64.34260, -13.80200,   5,   6,   0, 4.45, 9999.99, 10.00, 9,   3, 5, 0.000
61399920, 4400899, 2018-04-12 05:00:00, 64.34500, -13.80680,   5,   5,   0, 4.45, 9999.99, 10.00, 11,  18, 5, 0.000
61399920, 4400899, 2018-04-12 06:00:00, 64.35240, -13.79860,   4,   8,   2, 4.48, 9999.99, 10.00, 11,   3, 5, 0.000
61399920, 4400899, 2018-04-12 07:00:00, 64.36180, -13.78300,   5,   6,   0, 4.55, 9999.99, 10.00, 11,   3, 5, 0.000
